Total_Precipitation_Accumulation
2.36 2.41 2.28 2.31 2.29 2.51 2.93 3.46 3.41 3.57 3.54 3.20 2.73 2.52 2.56 2.43 2.38 2.33 1.98 2.06 2.26 2.31 2.35 2.33 2.27 2.23 2.26 2.16 1.98 1.80 1.57 1.43 1.23 0.97 0.79 0.70 0.74 0.70 0.55 0.45 0.35 0.29 0.26
2.18 2.15 2.12 2.29 2.35 2.30 2.46 2.89 3.08 3.43 3.40 3.06 2.55 2.32 2.30 2.35 2.23 2.21 1.97 2.02 2.16 2.03 2.06 2.32 2.53 2.60 2.52 2.39 2.25 2.07 1.82 1.64 1.40 1.08 0.93 0.84 0.68 0.65 0.68 0.56 0.42 0.31 0.25
1.86 1.86 1.95 1.95 2.01 1.95 2.03 2.24 2.49 2.77 2.74 2.60 2.48 2.40 2.31 2.21 2.04 2.02 2.08 2.03 1.79 1.86 1.96 2.10 2.34 2.47 2.64 2.77 2.69 2.45 2.15 1.80 1.47 1.15 0.92 0.78 0.67 0.56 0.52 0.51 0.49 0.42 0.29
1.33 1.46 1.51 1.49 1.51 1.39 1.53 1.84 1.94 2.19 2.41 2.49 2.58 2.36 2.25 2.29 2.08 2.02 2.00 2.02 2.01 1.72 1.99 2.05 2.09 2.15 2.46 2.79 2.92 2.95 2.57 2.09 1.69 1.40 1.10 0.85 0.71 0.59 0.47 0.44 0.49 0.48 0.36
1.19 1.29 1.39 1.48 1.25 1.22 1.29 1.20 1.57 1.78 2.04 2.16 1.89 2.01 1.88 1.94 1.84 1.62 1.63 1.53 1.73 1.73 1.87 1.85 1.94 1.93 2.16 2.78 3.24 3.43 3.17 2.61 2.04 1.71 1.52 1.24 1.02 0.80 0.61 0.51 0.46 0.44 0.37
1.24 1.38 1.26 1.26 1.15 1.30 1.44 1.53 1.78 1.71 1.65 1.75 1.50 1.71 1.60 1.47 1.49 1.43 1.31 1.35 1.44 1.33 1.56 1.76 1.86 1.61 1.82 2.39 2.97 3.34 3.47 3.30 2.76 2.22 1.98 1.79 1.61 1.23 0.88 0.69 0.56 0.49 0.42
1.39 1.50 1.27 1.55 1.38 1.35 1.41 1.45 1.59 1.58 1.43 1.39 1.73 1.92 1.53 1.17 1.17 1.06 1.05 1.23 1.31 1.34 1.60 1.88 1.94 1.88 1.65 1.61 1.80 2.38 3.04 3.60 3.62 3.04 2.59 2.33 2.18 1.73 1.19 0.97 0.86 0.69 0.59
1.35 1.27 1.50 1.35 1.39 1.50 1.53 1.60 1.69 1.69 1.50 1.42 1.73 2.09 1.84 1.76 1.56 0.88 0.99 1.13 1.23 1.45 1.53 1.55 1.72 1.94 1.69 1.80 1.35 1.38 2.08 2.75 3.49 3.53 3.08 2.64 2.49 2.15 1.64 1.35 1.15 1.00 0.88
1.25 1.29 1.30 1.32 1.50 1.34 1.59 1.78 1.72 1.76 1.74 1.58 1.57 1.87 1.93 1.91 1.64 1.23 0.99 0.98 1.15 1.47 1.52 1.59 1.50 1.65 1.79 2.01 1.91 1.45 1.53 1.75 2.52 3.39 3.54 3.04 2.54 2.19 1.94 1.79 1.59 1.30 1.14
1.19 1.20 1.21 1.36 1.52 1.34 1.68 1.39 1.45 1.69 1.81 1.65 1.57 1.43 1.46 1.63 1.76 1.68 1.39 1.12 1.12 1.28 1.36 1.29 1.32 1.53 1.66 1.74 1.78 1.34 1.11 1.16 1.79 2.74 3.29 3.28 2.85 2.37 2.06 2.01 2.12 1.96 1.57
1.32 1.14 1.22 1.35 1.42 1.34 1.44 1.47 1.72 1.63 1.60 1.58 1.60 1.62 1.67 1.56 1.36 1.47 1.56 1.50 1.37 1.09 1.00 1.06 1.19 1.37 1.41 1.53 1.78 1.40 1.12 1.14 1.30 1.67 2.09 2.47 2.63 2.48 2.26 2.32 2.66 2.88 2.64
1.36 1.26 1.33 1.39 1.34 1.28 1.35 1.38 1.52 1.54 1.63 1.70 1.57 1.47 1.57 1.49 1.38 1.43 1.29 1.27 1.34 1.02 0.89 0.91 1.02 1.21 1.29 1.41 1.41 1.22 1.24 1.38 1.38 1.34 1.36 1.53 1.86 2.10 2.19 2.31 2.62 3.08 3.32
1.19 1.22 1.33 1.47 1.40 1.41 1.39 1.49 1.48 1.44 1.53 1.59 1.46 1.36 1.31 1.18 1.27 1.39 1.42 1.24 1.19 0.93 0.94 0.87 0.93 1.02 1.02 1.34 1.64 1.63 1.43 1.49 1.40 1.32 1.30 1.30 1.41 1.61 1.72 1.87 2.19 2.59 2.99
1.27 1.23 1.30 1.32 1.34 1.38 1.38 1.67 1.49 1.37 1.40 1.38 1.27 1.47 1.39 1.09 1.12 1.25 1.41 1.52 1.42 1.18 1.16 1.06 1.04 1.10 1.13 1.31 1.55 1.69 1.43 1.41 1.24 1.15 1.12 1.09 1.12 1.21 1.32 1.41 1.54 1.72 1.94
1.38 1.31 1.22 1.21 1.28 1.38 1.48 1.59 1.49 1.48 1.53 1.36 1.29 1.42 1.33 1.12 1.08 1.06 1.27 1.55 1.71 1.56 1.42 1.29 1.26 1.27 1.27 1.32 1.45 1.35 1.39 1.40 1.28 1.16 1.06 0.99 0.98 0.95 0.96 1.05 1.14 1.17 1.21
1.22 1.26 1.23 1.18 1.24 1.32 1.43 1.54 1.57 1.68 1.76 1.60 1.48 1.47 1.38 1.22 1.27 1.12 1.18 1.42 1.64 1.77 1.65 1.23 1.28 1.27 1.34 1.24 1.43 1.34 1.36 1.41 1.26 1.16 1.05 1.00 0.97 0.95 0.94 0.97 1.03 1.11 1.15
1.18 1.21 1.25 1.27 1.29 1.33 1.43 1.51 1.47 1.69 1.82 1.84 1.67 1.57 1.51 1.50 1.49 1.35 1.38 1.46 1.54 1.73 1.74 1.42 1.36 1.48 1.56 1.48 1.50 1.45 1.35 1.37 1.28 1.23 1.07 1.00 0.96 0.93 0.95 0.94 0.96 0.96 1.01
1.30 1.32 1.36 1.44 1.41 1.40 1.48 1.47 1.38 1.47 1.65 1.85 2.05 2.09 1.88 1.79 1.74 1.58 1.56 1.54 1.55 1.68 1.75 1.68 1.59 1.65 1.66 1.61 1.58 1.39 1.16 1.10 1.16 1.27 1.20 1.08 1.02 0.95 0.92 0.91 0.93 0.92 0.92
1.52 1.58 1.62 1.56 1.55 1.57 1.55 1.50 1.49 1.54 1.64 1.72 1.90 2.08 2.09 2.14 1.92 1.84 1.75 1.67 1.63 1.58 1.72 1.69 1.61 1.77 1.81 1.78 1.65 1.33 1.21 1.25 1.11 1.27 1.27 1.08 0.96 0.93 0.89 0.85 0.84 0.85 0.85
1.76 1.78 1.79 1.74 1.71 1.74 1.72 1.67 1.63 1.62 1.68 1.68 1.69 1.75 1.87 2.10 2.07 2.03 1.90 1.88 1.87 1.86 1.90 1.84 1.78 1.88 2.06 2.11 1.91 1.55 1.41 1.37 1.24 1.09 1.16 1.04 0.98 0.94 0.90 0.84 0.80 0.78 0.78
1.91 2.02 1.99 1.90 1.87 1.88 1.73 1.80 1.92 1.92 1.97 1.82 1.73 1.67 1.65 1.85 1.93 1.93 1.75 1.81 1.94 2.00 2.02 1.99 1.96 2.02 2.09 2.20 1.93 1.67 1.48 1.44 1.40 1.23 1.14 0.99 0.96 0.92 0.95 0.98 0.93 0.84 0.80
2.18 2.10 2.01 2.02 2.00 1.83 1.94 1.98 1.89 1.95 2.11 2.10 1.98 1.90 1.77 1.68 1.68 1.72 1.76 1.80 1.85 1.86 1.91 1.94 1.91 1.94 2.02 2.09 2.16 1.97 1.73 1.55 1.44 1.29 1.27 1.14 1.06 1.01 0.93 0.86 0.95 0.91 0.84
2.13 2.04 2.07 2.11 2.04 2.07 2.03 1.81 1.68 1.70 1.76 1.86 1.94 1.92 1.71 1.57 1.66 1.61 1.75 1.77 1.67 1.61 1.58 1.65 1.71 1.78 2.12 2.32 2.50 2.23 1.98 1.80 1.59 1.43 1.37 1.20 1.09 1.02 0.90 0.87 0.97 0.85 0.80
1.99 1.96 1.96 1.88 1.81 1.79 1.80 1.59 1.53 1.48 1.46 1.43 1.55 1.67 1.64 1.57 1.56 1.59 1.53 1.39 1.30 1.31 1.30 1.22 1.28 1.50 1.82 2.25 2.48 2.48 2.41 2.18 1.93 1.59 1.36 1.17 0.98 0.92 0.88 0.84 0.93 0.87 0.80
1.80 1.67 1.59 1.57 1.55 1.60 1.72 1.53 1.44 1.40 1.44 1.34 1.34 1.35 1.37 1.30 1.38 1.38 1.30 1.17 1.08 1.07 1.09 1.10 1.09 1.23 1.47 1.76 2.11 2.27 2.22 2.01 1.71 1.38 1.18 1.04 0.92 0.90 0.86 0.81 0.82 0.93 0.85
1.89 1.82 1.65 1.52 1.48 1.48 1.64 1.45 1.34 1.31 1.37 1.35 1.36 1.39 1.48 1.32 1.22 1.09 1.03 1.04 0.94 0.90 0.96 0.94 0.91 0.97 1.07 1.29 1.67 1.80 1.81 1.81 1.61 1.36 1.09 1.02 0.92 1.00 0.95 0.83 0.75 0.76 0.77